Moab, UT

6:44 PM MDT on May 22, 2017 (GMT -0600)
Canyonlands

Weather History for KCNY - August, 2014

Change the Weather History Date:

Tuesday, August 19, 2014

  Actual Average Record
Temperature  
Mean Temperature 71 °F 76 °F  
Max Temperature 81 °F 92 °F 107 °F (1986)
Min Temperature 60 °F 61 °F 45 °F (1978)
Degree Days  
Heating Degree Days 0 0  
Month to date heating degree days 0 0  
Since 1 June heating degree days 0 17  
Since 1 July heating degree days 0 0  
Cooling Degree Days 6 11  
Month to date cooling degree days 231 257  
Year to date cooling degree days 1153 1050  
Since 1 June cooling degree days 1054 986  
Growing Degree Days 22 (Base 50)    
Moisture  
Dew Point 54 °F    
Average Humidity 63    
Maximum Humidity 100    
Minimum Humidity 26    
Precipitation  
Precipitation 0.25 in 0.03 in 0.50 in (1959)
Month to date precipitation 1.38 0.51  
Year to date precipitation 5.13 5.05  
Sea Level Pressure  
Sea Level Pressure 29.82 in    
Wind  
Wind Speed 7 mph (WSW)    
Max Wind Speed 39 mph    
Max Gust Speed 48 mph    
Visibility 9 miles    
Events Rain , Thunderstorm    
T = Trace of Precipitation, MM = Missing Value Source: NWS Daily Summary

Daily Weather History Graph

Daily Weather History Graph

Search for Another Location

Airport or City:

Trip Planner

Search our weather history database for the weather conditions in past years. The results will help you decide how hot, cold, wet, or windy it might be!

Date:

Astronomy

Aug. 19, 2014 Rise Set
Actual Time 6:36 AM MDT 8:07 PM MDT
Civil Twilight 6:08 AM MDT 8:35 PM MDT
Nautical Twilight 5:34 AM MDT 9:09 PM MDT
Astronomical Twilight 4:58 AM MDT 9:45 PM MDT
Moon 1:32 AM MDT (8/19) 4:06 PM MDT (8/19)
Length of Visible Light 14h 27m
Length of Day
13h 31m
Waning Crescent, 28% of the Moon is Illuminated
Aug 19
Waning Crescent
Aug 25
New
Sep 2
First Quarter
Sep 8
Full
Sep 15
Last Quarter

Hourly Weather History & Observations

Time (MDT) Temp. Dew Point Humidity Pressure Visibility Wind Dir Wind Speed Gust Speed Precip Events Conditions
12:53 AM 81.0 °F 42.1 °F 25% 29.73 in 10.0 mi WSW 35.7 mph 42.6 mph N/A   Scattered Clouds
1:53 AM 78.1 °F 43.0 °F 29% 29.73 in 10.0 mi West 19.6 mph 42.6 mph N/A   Partly Cloudy
2:53 AM 77.0 °F 44.6 °F 32% 29.98 in 10.0 mi WSW 23.0 mph 31.1 mph N/A Thunderstorm Mostly Cloudy
3:07 AM 75.9 °F 46.9 °F 36% 29.99 in 10.0 mi SW 16.1 mph 29.9 mph 0.00 in Rain Light Rain
3:53 AM 73.0 °F 51.1 °F 46% 29.78 in 10.0 mi North 6.9 mph - 0.00 in   Mostly Cloudy
4:53 AM 72.0 °F 51.1 °F 48% 29.76 in 10.0 mi NW 11.5 mph - 0.00 in Rain Light Rain
5:53 AM 72.0 °F 48.9 °F 44% 29.76 in 10.0 mi WNW 8.1 mph - 0.00 in   Mostly Cloudy
6:53 AM 72.0 °F 48.9 °F 44% 29.79 in 10.0 mi WSW 8.1 mph - N/A   Overcast
7:53 AM 72.0 °F 50.0 °F 46% 29.80 in 10.0 mi Calm Calm - N/A   Mostly Cloudy
8:53 AM 73.0 °F 50.0 °F 44% 29.81 in 10.0 mi North 3.5 mph - N/A   Clear
9:53 AM 71.1 °F 55.0 °F 57% 29.80 in 9.0 mi Calm Calm - 0.00 in Rain Light Rain
10:53 AM 73.0 °F 53.1 °F 49% 29.81 in 10.0 mi ENE 6.9 mph - 0.00 in   Overcast
11:53 AM 72.0 °F 55.0 °F 55% 29.81 in 10.0 mi East 5.8 mph - 0.00 in   Overcast
12:53 PM 73.0 °F 53.1 °F 49% 29.79 in 10.0 mi ESE 6.9 mph - 0.00 in   Mostly Cloudy
1:53 PM 79.0 °F 52.0 °F 39% 29.75 in 10.0 mi Variable 4.6 mph - N/A   Mostly Cloudy
2:53 PM 75.9 °F 53.1 °F 45% 29.74 in 10.0 mi Calm Calm - 0.00 in Rain Light Rain
3:53 PM 79.0 °F 52.0 °F 39% 29.72 in 10.0 mi Variable 3.5 mph - 0.00 in   Scattered Clouds
4:53 PM 75.0 °F 55.0 °F 50% 29.73 in 10.0 mi WNW 19.6 mph - 0.00 in Rain Light Rain
5:49 PM 69.8 °F 57.2 °F 64% 29.93 in 10.0 mi West 15.0 mph - 0.00 in Thunderstorm Overcast
5:53 PM 69.1 °F 57.9 °F 68% 29.78 in 8.0 mi WSW 17.3 mph - 0.00 in Rain , Thunderstorm Light Rain
5:58 PM 66.9 °F 60.1 °F 79% 29.96 in 3.0 mi SSW 21.9 mph - 0.03 in Rain Rain
6:03 PM 64.9 °F 61.0 °F 87% 29.96 in 1.8 mi SW 19.6 mph - 0.07 in Rain Heavy Rain
6:16 PM 63.0 °F 61.0 °F 93% 29.96 in 3.0 mi SSW 6.9 mph - 0.14 in Rain Rain
6:49 PM 62.6 °F 60.8 °F 94% 29.95 in 2.5 mi Calm Calm - 0.23 in Rain Rain
6:53 PM 62.1 °F 61.0 °F 96% 29.80 in 3.0 mi Calm Calm - 0.24 in Rain Rain
7:53 PM 64.9 °F 62.1 °F 90% 29.77 in 10.0 mi SE 3.5 mph - 0.01 in Rain Light Rain
8:53 PM 63.0 °F 61.0 °F 93% 29.78 in 10.0 mi SE 3.5 mph - 0.00 in   Clear
9:53 PM 63.0 °F 62.1 °F 97% 29.80 in 10.0 mi ESE 6.9 mph - N/A   Mostly Cloudy
10:53 PM 64.0 °F 62.1 °F 93% 29.80 in 10.0 mi Calm Calm - N/A   Overcast
11:53 PM 64.0 °F 61.0 °F 90% 29.81 in 10.0 mi Calm Calm - N/A   Mostly Cloudy